Location: Crescent
(42.8242°N, 73.7329°W)
Time: 07:52:19
(UTC+00:00)

Vanguard 1 - Pass Details

Date: 18 February 2026
Orbit: 653 x 3818 km, 34.2° (Epoch: 12 March)

Event Time Altitude Azimuth Distance (km) Brightness Sun altitude
Rises 04:49:20 0° 276° (W) 7,721 14.7 -58.5°
Reaches altitude 10° 04:59:44 10° 254° (WSW) 6,915 14.2 -58.7°
Enters shadow 05:03:24 12° 245° (WSW) 6,735 14.1 -58.8°
Maximum altitude 05:07:32 13° 234° (SW) 6,609 - -58.8°
Drops below altitude 10° 05:15:09 10° 214° (SSW) 6,612 - -58.8°
Sets 05:24:47 0° 190° (S) 7,067 - -58.6°
